M I D A S
Marine Information and Data Acquisition System
Tripno 1250 of the Zeeleeuw from 2007-04-23 07:07:39 to 2007-04-23 14:47:49
Back to CruiseResearch ActivitiesStationsMapUnderway DataData graphs

EquipmentUnitsComments
TimeDGPSUTC
LatitudeDGPSDM.mWGS84
LongitudeDGPSDM.mWGS84
SpeedMeteo Stationm/sRelative wind speed
DirectionMeteo StationdegRelative wind direction
TemperatureMeteo Stationdeg CelciusAir temperature
PressureMeteo StationPaAtmospheric pressure
HumidityMeteo Station%Relative humidity
Missing or incorrect values are displayed as -999
Metereological data collected by the RV Zeeleeuw from 2007-04-23 06:44:59 to 2007-04-23 15:01:30
Time Latitude Longitude Speed Direction Temperature Pressure Humidity
2007-04-23 06:46 51°13.606 2°56.075 -999 -999 -999 -999 -999
2007-04-23 06:47 51°13.593 2°56.097 -999 -999 -999 -999 -999
2007-04-23 06:48 51°13.569 2°56.123 -999 -999 -999 -999 -999
2007-04-23 06:49 51°13.531 2°56.185 -999 -999 -999 -999 -999
2007-04-23 06:50 51°13.544 2°56.277 -999 -999 -999 -999 -999
2007-04-23 06:51 51°13.539 2°56.28 -999 -999 -999 -999 -999
2007-04-23 06:52 51°13.54 2°56.285 -999 -999 -999 -999 -999
2007-04-23 06:53 51°13.544 2°56.287 -999 -999 -999 -999 -999
2007-04-23 06:54 51°13.533 2°56.295 -999 -999 -999 -999 -999
2007-04-23 06:55 51°13.549 2°56.234 -999 -999 -999 -999 -999
2007-04-23 06:56 51°13.561 2°56.124 -999 -999 -999 -999 -999
2007-04-23 06:57 51°13.596 2°56.021 -999 -999 -999 -999 -999
2007-04-23 06:58 51°13.645 2°55.914 -999 -999 -999 -999 -999
2007-04-23 06:59 51°13.703 2°55.795 -999 -999 -999 -999 -999
2007-04-23 07:00 51°13.778 2°55.684 -999 -999 -999 -999 -999
2007-04-23 07:01 51°13.877 2°55.606 -999 -999 -999 -999 -999
2007-04-23 07:02 51°13.994 2°55.522 -999 -999 -999 -999 -999
2007-04-23 07:03 51°14.118 2°55.431 -999 -999 -999 -999 -999
2007-04-23 07:04 51°14.245 2°55.282 -999 -999 -999 -999 -999
2007-04-23 07:05 51°14.379 2°55.026 -999 -999 -999 -999 -999
2007-04-23 07:06 51°14.56 2°54.81 -999 -999 -999 -999 -999
2007-04-23 07:07 51°14.751 2°54.628 -999 -999 -999 -999 -999
2007-04-23 07:08 51°14.94 2°54.446 -999 -999 -999 -999 -999
2007-04-23 07:09 51°15.127 2°54.264 -999 -999 -999 -999 -999
2007-04-23 07:10 51°15.316 2°54.078 -999 -999 -999 -999 -999
2007-04-23 07:11 51°15.502 2°53.894 -999 -999 -999 -999 -999
2007-04-23 07:12 51°15.694 2°53.722 -999 -999 -999 -999 -999
2007-04-23 07:13 51°15.888 2°53.552 -999 -999 -999 -999 -999
2007-04-23 07:14 51°16.088 2°53.399 -999 -999 -999 -999 -999
2007-04-23 07:15 51°16.292 2°53.256 -999 -999 -999 -999 -999
2007-04-23 07:16 51°16.495 2°53.112 -999 -999 -999 -999 -999
2007-04-23 07:17 51°16.695 2°52.953 -999 -999 -999 -999 -999
2007-04-23 07:18 51°16.896 2°52.797 -999 -999 -999 -999 -999
2007-04-23 07:19 51°17.097 2°52.638 -999 -999 -999 -999 -999
2007-04-23 07:20 51°17.294 2°52.477 -999 -999 -999 -999 -999
2007-04-23 07:21 51°17.481 2°52.288 -999 -999 -999 -999 -999
2007-04-23 07:22 51°17.667 2°52.095 -999 -999 -999 -999 -999
2007-04-23 07:23 51°17.854 2°51.897 -999 -999 -999 -999 -999
2007-04-23 07:24 51°18.022 2°51.678 -999 -999 -999 -999 -999
2007-04-23 07:25 51°18.191 2°51.447 -999 -999 -999 -999 -999
2007-04-23 07:26 51°18.329 2°51.261 -999 -999 -999 -999 -999
2007-04-23 07:27 51°18.42 2°51.13 -999 -999 -999 -999 -999
2007-04-23 07:28 51°18.468 2°51.024 -999 -999 -999 -999 -999
2007-04-23 07:29 51°18.495 2°50.98 -999 -999 -999 -999 -999
2007-04-23 07:30 51°18.505 2°50.98 -999 -999 -999 -999 -999
2007-04-23 07:31 51°18.516 2°50.981 -999 -999 -999 -999 -999
2007-04-23 07:32 51°18.528 2°50.983 -999 -999 -999 -999 -999
2007-04-23 07:33 51°18.539 2°50.987 -999 -999 -999 -999 -999
2007-04-23 07:34 51°18.549 2°50.991 -999 -999 -999 -999 -999
2007-04-23 07:35 51°18.56 2°50.996 -999 -999 -999 -999 -999
2007-04-23 07:36 51°18.585 2°50.997 -999 -999 -999 -999 -999
2007-04-23 07:37 51°18.677 2°51.112 -999 -999 -999 -999 -999
2007-04-23 07:38 51°18.724 2°51.397 -999 -999 -999 -999 -999
2007-04-23 07:39 51°18.795 2°51.698 -999 -999 -999 -999 -999
2007-04-23 07:40 51°18.87 2°52.02 -999 -999 -999 -999 -999
2007-04-23 07:41 51°18.947 2°52.359 -999 -999 -999 -999 -999
2007-04-23 07:42 51°19.021 2°52.688 -999 -999 -999 -999 -999
2007-04-23 07:43 51°19.096 2°53.022 -999 -999 -999 -999 -999
2007-04-23 07:44 51°19.171 2°53.356 -999 -999 -999 -999 -999
2007-04-23 07:45 51°19.246 2°53.691 -999 -999 -999 -999 -999
2007-04-23 07:46 51°19.321 2°54.027 -999 -999 -999 -999 -999
2007-04-23 07:47 51°19.396 2°54.36 -999 -999 -999 -999 -999
2007-04-23 07:48 51°19.47 2°54.693 -999 -999 -999 -999 -999
2007-04-23 07:49 51°19.545 2°55.024 -999 -999 -999 -999 -999
2007-04-23 07:50 51°19.623 2°55.36 -999 -999 -999 -999 -999
2007-04-23 07:51 51°19.696 2°55.685 -999 -999 -999 -999 -999
2007-04-23 07:52 51°19.771 2°56.015 -999 -999 -999 -999 -999
2007-04-23 07:53 51°19.845 2°56.344 -999 -999 -999 -999 -999
2007-04-23 07:54 51°19.92 2°56.676 -999 -999 -999 -999 -999
2007-04-23 07:55 51°19.994 2°56.996 -999 -999 -999 -999 -999
2007-04-23 07:56 51°20.068 2°57.321 -999 -999 -999 -999 -999
2007-04-23 07:57 51°20.143 2°57.654 -999 -999 -999 -999 -999
2007-04-23 07:58 51°20.216 2°57.976 -999 -999 -999 -999 -999
2007-04-23 07:59 51°20.291 2°58.31 -999 -999 -999 -999 -999
2007-04-23 08:00 51°20.364 2°58.632 -999 -999 -999 -999 -999
2007-04-23 08:01 51°20.439 2°58.962 -999 -999 -999 -999 -999
2007-04-23 08:02 51°20.51 2°59.28 -999 -999 -999 -999 -999
2007-04-23 08:03 51°20.58 2°59.604 -999 -999 -999 -999 -999
2007-04-23 08:04 51°20.654 2°59.931 -999 -999 -999 -999 -999
2007-04-23 08:05 51°20.727 3°0.251 -999 -999 -999 -999 -999
2007-04-23 08:06 51°20.802 3°0.581 -999 -999 -999 -999 -999
2007-04-23 08:07 51°20.877 3°0.9 -999 -999 -999 -999 -999
2007-04-23 08:08 51°20.949 3°1.225 -999 -999 -999 -999 -999
2007-04-23 08:09 51°21.021 3°1.549 -999 -999 -999 -999 -999
2007-04-23 08:10 51°21.096 3°1.878 -999 -999 -999 -999 -999
2007-04-23 08:11 51°21.16 3°2.202 -999 -999 -999 -999 -999
2007-04-23 08:12 51°21.213 3°2.535 -999 -999 -999 -999 -999
2007-04-23 08:13 51°21.267 3°2.875 -999 -999 -999 -999 -999
2007-04-23 08:14 51°21.32 3°3.202 -999 -999 -999 -999 -999
2007-04-23 08:15 51°21.376 3°3.54 -999 -999 -999 -999 -999
2007-04-23 08:16 51°21.429 3°3.866 -999 -999 -999 -999 -999
2007-04-23 08:17 51°21.485 3°4.205 -999 -999 -999 -999 -999
2007-04-23 08:18 51°21.537 3°4.53 -999 -999 -999 -999 -999
2007-04-23 08:19 51°21.591 3°4.859 -999 -999 -999 -999 -999
2007-04-23 08:20 51°21.645 3°5.193 -999 -999 -999 -999 -999
2007-04-23 08:21 51°21.698 3°5.521 -999 -999 -999 -999 -999
2007-04-23 08:22 51°21.751 3°5.847 -999 -999 -999 -999 -999
2007-04-23 08:23 51°21.802 3°6.166 -999 -999 -999 -999 -999
2007-04-23 08:24 51°21.854 3°6.494 -999 -999 -999 -999 -999
2007-04-23 08:25 51°21.906 3°6.81 -999 -999 -999 -999 -999
2007-04-23 08:26 51°21.958 3°7.138 -999 -999 -999 -999 -999
2007-04-23 08:27 51°22.009 3°7.454 -999 -999 -999 -999 -999
2007-04-23 08:28 51°22.058 3°7.773 -999 -999 -999 -999 -999
2007-04-23 08:29 51°22.133 3°8.087 -999 -999 -999 -999 -999
2007-04-23 08:30 51°22.185 3°8.4 -999 -999 -999 -999 -999
2007-04-23 08:31 51°22.22 3°8.728 -999 -999 -999 -999 -999
2007-04-23 08:32 51°22.227 3°9.047 -999 -999 -999 -999 -999
2007-04-23 08:33 51°22.24 3°9.373 -999 -999 -999 -999 -999
2007-04-23 08:34 51°22.242 3°9.685 -999 -999 -999 -999 -999
2007-04-23 08:35 51°22.233 3°10 -999 -999 -999 -999 -999
2007-04-23 08:36 51°22.245 3°10.308 -999 -999 -999 -999 -999
2007-04-23 08:37 51°22.281 3°10.617 -999 -999 -999 -999 -999
2007-04-23 08:38 51°22.316 3°10.931 -999 -999 -999 -999 -999
2007-04-23 08:39 51°22.349 3°11.237 -999 -999 -999 -999 -999
2007-04-23 08:40 51°22.385 3°11.553 -999 -999 -999 -999 -999
2007-04-23 08:41 51°22.42 3°11.86 -999 -999 -999 -999 -999
2007-04-23 08:42 51°22.455 3°12.175 -999 -999 -999 -999 -999
2007-04-23 08:43 51°22.493 3°12.477 -999 -999 -999 -999 -999
2007-04-23 08:44 51°22.533 3°12.774 -999 -999 -999 -999 -999
2007-04-23 08:45 51°22.564 3°12.998 -999 -999 -999 -999 -999
2007-04-23 08:46 51°22.587 3°13.116 -999 -999 -999 -999 -999
2007-04-23 08:47 51°22.604 3°13.183 -999 -999 -999 -999 -999
2007-04-23 08:48 51°22.608 3°13.19 -999 -999 -999 -999 -999
2007-04-23 08:49 51°22.613 3°13.185 -999 -999 -999 -999 -999
2007-04-23 08:50 51°22.615 3°13.176 -999 -999 -999 -999 -999
2007-04-23 08:51 51°22.615 3°13.16 -999 -999 -999 -999 -999
2007-04-23 08:52 51°22.614 3°13.138 -999 -999 -999 -999 -999
2007-04-23 08:53 51°22.613 3°13.11 -999 -999 -999 -999 -999
2007-04-23 08:54 51°22.602 3°13.124 -999 -999 -999 -999 -999
2007-04-23 08:55 51°22.658 3°13.252 -999 -999 -999 -999 -999
2007-04-23 08:56 51°22.784 3°13.451 -999 -999 -999 -999 -999
2007-04-23 08:57 51°22.918 3°13.689 -999 -999 -999 -999 -999
2007-04-23 08:58 51°23.051 3°13.935 -999 -999 -999 -999 -999
2007-04-23 08:59 51°23.192 3°14.163 -999 -999 -999 -999 -999
2007-04-23 09:00 51°23.343 3°14.389 -999 -999 -999 -999 -999
2007-04-23 09:01 51°23.497 3°14.605 -999 -999 -999 -999 -999
2007-04-23 09:02 51°23.653 3°14.819 -999 -999 -999 -999 -999
2007-04-23 09:03 51°23.813 3°15.022 -999 -999 -999 -999 -999
2007-04-23 09:04 51°23.995 3°15.177 -999 -999 -999 -999 -999
2007-04-23 09:05 51°24.189 3°15.326 -999 -999 -999 -999 -999
2007-04-23 09:06 51°24.385 3°15.46 -999 -999 -999 -999 -999
2007-04-23 09:07 51°24.59 3°15.601 -999 -999 -999 -999 -999
2007-04-23 09:08 51°24.774 3°15.779 -999 -999 -999 -999 -999
2007-04-23 09:09 51°24.945 3°15.982 -999 -999 -999 -999 -999
2007-04-23 09:10 51°25.114 3°16.192 -999 -999 -999 -999 -999
2007-04-23 09:11 51°25.256 3°16.436 -999 -999 -999 -999 -999
2007-04-23 09:12 51°25.381 3°16.697 -999 -999 -999 -999 -999
2007-04-23 09:13 51°25.503 3°16.966 -999 -999 -999 -999 -999
2007-04-23 09:14 51°25.626 3°17.235 -999 -999 -999 -999 -999
2007-04-23 09:15 51°25.747 3°17.496 -999 -999 -999 -999 -999
2007-04-23 09:16 51°25.854 3°17.711 -999 -999 -999 -999 -999
2007-04-23 09:17 51°25.884 3°17.825 -999 -999 -999 -999 -999
2007-04-23 09:18 51°25.907 3°17.873 -999 -999 -999 -999 -999
2007-04-23 09:19 51°25.914 3°17.87 -999 -999 -999 -999 -999
2007-04-23 09:20 51°25.917 3°17.859 -999 -999 -999 -999 -999
2007-04-23 09:21 51°25.919 3°17.843 -999 -999 -999 -999 -999
2007-04-23 09:22 51°25.92 3°17.821 -999 -999 -999 -999 -999
2007-04-23 09:23 51°25.913 3°17.806 -999 -999 -999 -999 -999
2007-04-23 09:24 51°25.86 3°17.763 -999 -999 -999 -999 -999
2007-04-23 09:25 51°25.784 3°17.502 -999 -999 -999 -999 -999
2007-04-23 09:26 51°25.756 3°17.132 -999 -999 -999 -999 -999
2007-04-23 09:27 51°25.736 3°16.752 -999 -999 -999 -999 -999
2007-04-23 09:28 51°25.712 3°16.376 -999 -999 -999 -999 -999
2007-04-23 09:29 51°25.658 3°16.013 -999 -999 -999 -999 -999
2007-04-23 09:30 51°25.625 3°15.644 -999 -999 -999 -999 -999
2007-04-23 09:31 51°25.584 3°15.283 -999 -999 -999 -999 -999
2007-04-23 09:32 51°25.551 3°14.904 -999 -999 -999 -999 -999
2007-04-23 09:33 51°25.517 3°14.525 -999 -999 -999 -999 -999
2007-04-23 09:34 51°25.481 3°14.143 -999 -999 -999 -999 -999
2007-04-23 09:35 51°25.443 3°13.761 -999 -999 -999 -999 -999
2007-04-23 09:36 51°25.405 3°13.378 -999 -999 -999 -999 -999
2007-04-23 09:37 51°25.365 3°12.995 -999 -999 -999 -999 -999
2007-04-23 09:38 51°25.326 3°12.61 -999 -999 -999 -999 -999
2007-04-23 09:39 51°25.3 3°12.221 -999 -999 -999 -999 -999
2007-04-23 09:40 51°25.263 3°11.842 -999 -999 -999 -999 -999
2007-04-23 09:41 51°25.22 3°11.454 -999 -999 -999 -999 -999
2007-04-23 09:42 51°25.178 3°11.075 -999 -999 -999 -999 -999
2007-04-23 09:43 51°25.13 3°10.702 -999 -999 -999 -999 -999
2007-04-23 09:44 51°25.087 3°10.331 -999 -999 -999 -999 -999
2007-04-23 09:45 51°25.044 3°9.963 -999 -999 -999 -999 -999
2007-04-23 09:46 51°25 3°9.601 -999 -999 -999 -999 -999
2007-04-23 09:47 51°24.947 3°9.245 -999 -999 -999 -999 -999
2007-04-23 09:48 51°24.885 3°8.889 -999 -999 -999 -999 -999
2007-04-23 09:49 51°24.876 3°8.516 -999 -999 -999 -999 -999
2007-04-23 09:50 51°24.933 3°8.155 -999 -999 -999 -999 -999
2007-04-23 09:51 51°25.088 3°7.914 -999 -999 -999 -999 -999
2007-04-23 09:52 51°25.294 3°7.863 -999 -999 -999 -999 -999
2007-04-23 09:53 51°25.499 3°7.945 -999 -999 -999 -999 -999
2007-04-23 09:54 51°25.708 3°8.013 -999 -999 -999 -999 -999
2007-04-23 09:55 51°25.914 3°8.106 -999 -999 -999 -999 -999
2007-04-23 09:56 51°26.117 3°8.208 -999 -999 -999 -999 -999
2007-04-23 09:57 51°26.298 3°8.296 -999 -999 -999 -999 -999
2007-04-23 09:58 51°26.397 3°8.36 -999 -999 -999 -999 -999
2007-04-23 09:59 51°26.43 3°8.418 -999 -999 -999 -999 -999
2007-04-23 10:00 51°26.436 3°8.41 -999 -999 -999 -999 -999
2007-04-23 10:01 51°26.443 3°8.403 -999 -999 -999 -999 -999
2007-04-23 10:02 51°26.451 3°8.395 -999 -999 -999 -999 -999
2007-04-23 10:03 51°26.46 3°8.386 -999 -999 -999 -999 -999
2007-04-23 10:04 51°26.468 3°8.377 -999 -999 -999 -999 -999
2007-04-23 10:05 51°26.476 3°8.366 -999 -999 -999 -999 -999
2007-04-23 10:06 51°26.484 3°8.355 -999 -999 -999 -999 -999
2007-04-23 10:07 51°26.507 3°8.322 -999 -999 -999 -999 -999
2007-04-23 10:08 51°26.578 3°8.185 -999 -999 -999 -999 -999
2007-04-23 10:09 51°26.674 3°7.904 -999 -999 -999 -999 -999
2007-04-23 10:10 51°26.783 3°7.592 -999 -999 -999 -999 -999
2007-04-23 10:11 51°26.897 3°7.281 -999 -999 -999 -999 -999
2007-04-23 10:12 51°27.01 3°6.969 -999 -999 -999 -999 -999
2007-04-23 10:13 51°27.123 3°6.658 -999 -999 -999 -999 -999
2007-04-23 10:14 51°27.238 3°6.351 -999 -999 -999 -999 -999
2007-04-23 10:15 51°27.354 3°6.048 -999 -999 -999 -999 -999
2007-04-23 10:16 51°27.47 3°5.749 -999 -999 -999 -999 -999
2007-04-23 10:17 51°27.582 3°5.45 -999 -999 -999 -999 -999
2007-04-23 10:18 51°27.693 3°5.152 -999 -999 -999 -999 -999
2007-04-23 10:19 51°27.807 3°4.855 -999 -999 -999 -999 -999
2007-04-23 10:20 51°27.919 3°4.555 -999 -999 -999 -999 -999
2007-04-23 10:21 51°28.025 3°4.251 -999 -999 -999 -999 -999
2007-04-23 10:22 51°28.125 3°3.942 -999 -999 -999 -999 -999
2007-04-23 10:23 51°28.224 3°3.633 -999 -999 -999 -999 -999
2007-04-23 10:24 51°28.269 3°3.459 -999 -999 -999 -999 -999
2007-04-23 10:25 51°28.274 3°3.435 -999 -999 -999 -999 -999
2007-04-23 10:26 51°28.273 3°3.431 -999 -999 -999 -999 -999
2007-04-23 10:27 51°28.274 3°3.428 -999 -999 -999 -999 -999
2007-04-23 10:28 51°28.275 3°3.429 -999 -999 -999 -999 -999
2007-04-23 10:29 51°28.276 3°3.429 -999 -999 -999 -999 -999
2007-04-23 10:30 51°28.301 3°3.406 -999 -999 -999 -999 -999
2007-04-23 10:31 51°28.308 3°3.242 -999 -999 -999 -999 -999
2007-04-23 10:32 51°28.29 3°2.906 -999 -999 -999 -999 -999
2007-04-23 10:33 51°28.244 3°2.554 -999 -999 -999 -999 -999
2007-04-23 10:34 51°28.188 3°2.202 -999 -999 -999 -999 -999
2007-04-23 10:35 51°28.132 3°1.848 -999 -999 -999 -999 -999
2007-04-23 10:36 51°28.077 3°1.492 -999 -999 -999 -999 -999
2007-04-23 10:37 51°28.019 3°1.134 -999 -999 -999 -999 -999
2007-04-23 10:38 51°27.96 3°0.774 -999 -999 -999 -999 -999
2007-04-23 10:39 51°27.901 3°0.413 -999 -999 -999 -999 -999
2007-04-23 10:40 51°27.842 3°0.054 -999 -999 -999 -999 -999
2007-04-23 10:41 51°27.783 2°59.694 -999 -999 -999 -999 -999
2007-04-23 10:42 51°27.723 2°59.336 -999 -999 -999 -999 -999
2007-04-23 10:43 51°27.666 2°58.975 -999 -999 -999 -999 -999
2007-04-23 10:44 51°27.607 2°58.614 -999 -999 -999 -999 -999
2007-04-23 10:45 51°27.549 2°58.254 -999 -999 -999 -999 -999
2007-04-23 10:46 51°27.492 2°57.893 -999 -999 -999 -999 -999
2007-04-23 10:47 51°27.436 2°57.531 -999 -999 -999 -999 -999
2007-04-23 10:48 51°27.38 2°57.169 -999 -999 -999 -999 -999
2007-04-23 10:49 51°27.323 2°56.808 -999 -999 -999 -999 -999
2007-04-23 10:50 51°27.265 2°56.446 -999 -999 -999 -999 -999
2007-04-23 10:51 51°27.206 2°56.084 -999 -999 -999 -999 -999
2007-04-23 10:52 51°27.149 2°55.722 -999 -999 -999 -999 -999
2007-04-23 10:53 51°27.093 2°55.363 -999 -999 -999 -999 -999
2007-04-23 10:54 51°27.034 2°55.001 -999 -999 -999 -999 -999
2007-04-23 10:55 51°26.975 2°54.636 -999 -999 -999 -999 -999
2007-04-23 10:56 51°26.914 2°54.269 -999 -999 -999 -999 -999
2007-04-23 10:57 51°26.851 2°53.897 -999 -999 -999 -999 -999
2007-04-23 10:58 51°26.792 2°53.529 -999 -999 -999 -999 -999
2007-04-23 10:59 51°26.736 2°53.164 -999 -999 -999 -999 -999
2007-04-23 11:00 51°26.688 2°52.799 -999 -999 -999 -999 -999
2007-04-23 11:01 51°26.636 2°52.434 -999 -999 -999 -999 -999
2007-04-23 11:02 51°26.586 2°52.067 -999 -999 -999 -999 -999
2007-04-23 11:03 51°26.531 2°51.703 -999 -999 -999 -999 -999
2007-04-23 11:04 51°26.474 2°51.34 -999 -999 -999 -999 -999
2007-04-23 11:05 51°26.418 2°50.978 -999 -999 -999 -999 -999
2007-04-23 11:06 51°26.361 2°50.613 -999 -999 -999 -999 -999
2007-04-23 11:07 51°26.301 2°50.247 -999 -999 -999 -999 -999
2007-04-23 11:08 51°26.238 2°49.882 -999 -999 -999 -999 -999
2007-04-23 11:09 51°26.175 2°49.515 -999 -999 -999 -999 -999
2007-04-23 11:10 51°26.112 2°49.151 -999 -999 -999 -999 -999
2007-04-23 11:11 51°26.059 2°48.804 -999 -999 -999 -999 -999
2007-04-23 11:12 51°26.019 2°48.6 -999 -999 -999 -999 -999
2007-04-23 11:13 51°26.002 2°48.548 -999 -999 -999 -999 -999
2007-04-23 11:14 51°25.979 2°48.547 -999 -999 -999 -999 -999
2007-04-23 11:15 51°25.959 2°48.544 -999 -999 -999 -999 -999
2007-04-23 11:16 51°25.94 2°48.54 -999 -999 -999 -999 -999
2007-04-23 11:17 51°25.923 2°48.535 -999 -999 -999 -999 -999
2007-04-23 11:18 51°25.918 2°48.524 -999 -999 -999 -999 -999
2007-04-23 11:19 51°25.975 2°48.359 -999 -999 -999 -999 -999
2007-04-23 11:20 51°25.947 2°48.016 -999 -999 -999 -999 -999
2007-04-23 11:21 51°25.828 2°47.696 -999 -999 -999 -999 -999
2007-04-23 11:22 51°25.712 2°47.368 -999 -999 -999 -999 -999
2007-04-23 11:23 51°25.597 2°47.042 -999 -999 -999 -999 -999
2007-04-23 11:24 51°25.483 2°46.714 -999 -999 -999 -999 -999
2007-04-23 11:25 51°25.367 2°46.384 -999 -999 -999 -999 -999
2007-04-23 11:26 51°25.251 2°46.058 -999 -999 -999 -999 -999
2007-04-23 11:27 51°25.137 2°45.732 -999 -999 -999 -999 -999
2007-04-23 11:28 51°25.012 2°45.417 -999 -999 -999 -999 -999
2007-04-23 11:29 51°24.89 2°45.099 -999 -999 -999 -999 -999
2007-04-23 11:30 51°24.777 2°44.771 -999 -999 -999 -999 -999
2007-04-23 11:31 51°24.664 2°44.441 -999 -999 -999 -999 -999
2007-04-23 11:32 51°24.552 2°44.111 -999 -999 -999 -999 -999
2007-04-23 11:33 51°24.44 2°43.778 -999 -999 -999 -999 -999
2007-04-23 11:34 51°24.328 2°43.445 -999 -999 -999 -999 -999
2007-04-23 11:35 51°24.218 2°43.11 -999 -999 -999 -999 -999
2007-04-23 11:36 51°24.105 2°42.773 -999 -999 -999 -999 -999
2007-04-23 11:37 51°23.991 2°42.436 -999 -999 -999 -999 -999
2007-04-23 11:38 51°23.879 2°42.097 -999 -999 -999 -999 -999
2007-04-23 11:39 51°23.767 2°41.759 -999 -999 -999 -999 -999
2007-04-23 11:40 51°23.654 2°41.422 -999 -999 -999 -999 -999
2007-04-23 11:41 51°23.541 2°41.085 -999 -999 -999 -999 -999
2007-04-23 11:42 51°23.429 2°40.749 -999 -999 -999 -999 -999
2007-04-23 11:43 51°23.314 2°40.418 -999 -999 -999 -999 -999
2007-04-23 11:44 51°23.198 2°40.086 -999 -999 -999 -999 -999
2007-04-23 11:45 51°23.083 2°39.753 -999 -999 -999 -999 -999
2007-04-23 11:46 51°22.969 2°39.419 -999 -999 -999 -999 -999
2007-04-23 11:47 51°22.854 2°39.084 -999 -999 -999 -999 -999
2007-04-23 11:48 51°22.74 2°38.748 -999 -999 -999 -999 -999
2007-04-23 11:49 51°22.627 2°38.409 -999 -999 -999 -999 -999
2007-04-23 11:50 51°22.513 2°38.073 -999 -999 -999 -999 -999
2007-04-23 11:51 51°22.399 2°37.737 -999 -999 -999 -999 -999
2007-04-23 11:52 51°22.287 2°37.396 -999 -999 -999 -999 -999
2007-04-23 11:53 51°22.175 2°37.055 -999 -999 -999 -999 -999
2007-04-23 11:54 51°22.066 2°36.714 -999 -999 -999 -999 -999
2007-04-23 11:55 51°21.957 2°36.376 -999 -999 -999 -999 -999
2007-04-23 11:56 51°21.847 2°36.039 -999 -999 -999 -999 -999
2007-04-23 11:57 51°21.739 2°35.7 -999 -999 -999 -999 -999
2007-04-23 11:58 51°21.63 2°35.362 -999 -999 -999 -999 -999
2007-04-23 11:59 51°21.522 2°35.021 -999 -999 -999 -999 -999
2007-04-23 12:00 51°21.415 2°34.678 -999 -999 -999 -999 -999
2007-04-23 12:01 51°21.308 2°34.336 -999 -999 -999 -999 -999
2007-04-23 12:02 51°21.199 2°33.993 -999 -999 -999 -999 -999
2007-04-23 12:03 51°21.091 2°33.65 -999 -999 -999 -999 -999
2007-04-23 12:04 51°20.981 2°33.306 -999 -999 -999 -999 -999
2007-04-23 12:05 51°20.872 2°32.961 -999 -999 -999 -999 -999
2007-04-23 12:06 51°20.764 2°32.616 -999 -999 -999 -999 -999
2007-04-23 12:07 51°20.656 2°32.271 -999 -999 -999 -999 -999
2007-04-23 12:08 51°20.546 2°31.927 -999 -999 -999 -999 -999
2007-04-23 12:09 51°20.438 2°31.582 -999 -999 -999 -999 -999
2007-04-23 12:10 51°20.331 2°31.234 -999 -999 -999 -999 -999
2007-04-23 12:11 51°20.233 2°30.909 -999 -999 -999 -999 -999
2007-04-23 12:12 51°20.153 2°30.63 -999 -999 -999 -999 -999
2007-04-23 12:13 51°20.099 2°30.301 -999 -999 -999 -999 -999
2007-04-23 12:14 51°20.052 2°30.017 -999 -999 -999 -999 -999
2007-04-23 12:15 51°20.032 2°29.886 -999 -999 -999 -999 -999
2007-04-23 12:16 51°20.028 2°29.853 -999 -999 -999 -999 -999
2007-04-23 12:17 51°20.025 2°29.825 -999 -999 -999 -999 -999
2007-04-23 12:18 51°20.022 2°29.798 -999 -999 -999 -999 -999
2007-04-23 12:19 51°20.019 2°29.774 -999 -999 -999 -999 -999
2007-04-23 12:20 51°20.038 2°29.71 -999 -999 -999 -999 -999
2007-04-23 12:21 51°20 2°29.596 -999 -999 -999 -999 -999
2007-04-23 12:22 51°19.924 2°29.673 -999 -999 -999 -999 -999
2007-04-23 12:23 51°19.8 2°29.901 -999 -999 -999 -999 -999
2007-04-23 12:24 51°19.68 2°30.158 -999 -999 -999 -999 -999
2007-04-23 12:25 51°19.57 2°30.434 -999 -999 -999 -999 -999
2007-04-23 12:26 51°19.446 2°30.704 -999 -999 -999 -999 -999
2007-04-23 12:27 51°19.32 2°30.977 -999 -999 -999 -999 -999
2007-04-23 12:28 51°19.195 2°31.251 -999 -999 -999 -999 -999
2007-04-23 12:29 51°19.071 2°31.524 -999 -999 -999 -999 -999
2007-04-23 12:30 51°18.947 2°31.799 -999 -999 -999 -999 -999
2007-04-23 12:31 51°18.815 2°32.068 -999 -999 -999 -999 -999
2007-04-23 12:32 51°18.68 2°32.336 -999 -999 -999 -999 -999
2007-04-23 12:33 51°18.544 2°32.601 -999 -999 -999 -999 -999
2007-04-23 12:34 51°18.409 2°32.866 -999 -999 -999 -999 -999
2007-04-23 12:35 51°18.273 2°33.133 -999 -999 -999 -999 -999
2007-04-23 12:36 51°18.136 2°33.392 -999 -999 -999 -999 -999
2007-04-23 12:37 51°17.999 2°33.652 -999 -999 -999 -999 -999
2007-04-23 12:38 51°17.865 2°33.915 -999 -999 -999 -999 -999
2007-04-23 12:39 51°17.746 2°34.193 -999 -999 -999 -999 -999
2007-04-23 12:40 51°17.633 2°34.485 -999 -999 -999 -999 -999
2007-04-23 12:41 51°17.517 2°34.771 -999 -999 -999 -999 -999
2007-04-23 12:42 51°17.403 2°35.057 -999 -999 -999 -999 -999
2007-04-23 12:43 51°17.285 2°35.342 -999 -999 -999 -999 -999
2007-04-23 12:44 51°17.165 2°35.629 -999 -999 -999 -999 -999
2007-04-23 12:45 51°17.056 2°35.927 -999 -999 -999 -999 -999
2007-04-23 12:46 51°16.937 2°36.212 -999 -999 -999 -999 -999
2007-04-23 12:47 51°16.816 2°36.453 -999 -999 -999 -999 -999
2007-04-23 12:48 51°16.723 2°36.621 -999 -999 -999 -999 -999
2007-04-23 12:49 51°16.668 2°36.728 -999 -999 -999 -999 -999
2007-04-23 12:50 51°16.609 2°36.788 -999 -999 -999 -999 -999
2007-04-23 12:51 51°16.583 2°36.775 -999 -999 -999 -999 -999
2007-04-23 12:52 51°16.579 2°36.751 -999 -999 -999 -999 -999
2007-04-23 12:53 51°16.573 2°36.728 -999 -999 -999 -999 -999
2007-04-23 12:54 51°16.566 2°36.705 -999 -999 -999 -999 -999
2007-04-23 12:55 51°16.56 2°36.683 -999 -999 -999 -999 -999
2007-04-23 12:56 51°16.55 2°36.671 -999 -999 -999 -999 -999
2007-04-23 12:57 51°16.431 2°36.791 -999 -999 -999 -999 -999
2007-04-23 12:58 51°16.229 2°36.926 -999 -999 -999 -999 -999
2007-04-23 12:59 51°16.002 2°36.968 -999 -999 -999 -999 -999
2007-04-23 13:00 51°15.775 2°36.982 -999 -999 -999 -999 -999
2007-04-23 13:01 51°15.551 2°36.998 -999 -999 -999 -999 -999
2007-04-23 13:02 51°15.32 2°37.017 -999 -999 -999 -999 -999
2007-04-23 13:03 51°15.093 2°37.029 -999 -999 -999 -999 -999
2007-04-23 13:04 51°14.864 2°37.045 -999 -999 -999 -999 -999
2007-04-23 13:05 51°14.636 2°37.06 -999 -999 -999 -999 -999
2007-04-23 13:06 51°14.404 2°37.074 -999 -999 -999 -999 -999
2007-04-23 13:07 51°14.169 2°37.088 -999 -999 -999 -999 -999
2007-04-23 13:08 51°13.934 2°37.108 -999 -999 -999 -999 -999
2007-04-23 13:09 51°13.704 2°37.141 -999 -999 -999 -999 -999
2007-04-23 13:10 51°13.479 2°37.173 -999 -999 -999 -999 -999
2007-04-23 13:11 51°13.258 2°37.206 -999 -999 -999 -999 -999
2007-04-23 13:12 51°13.03 2°37.236 -999 -999 -999 -999 -999
2007-04-23 13:13 51°12.8 2°37.269 -999 -999 -999 -999 -999
2007-04-23 13:14 51°12.568 2°37.304 -999 -999 -999 -999 -999
2007-04-23 13:15 51°12.341 2°37.363 -999 -999 -999 -999 -999
2007-04-23 13:16 51°12.111 2°37.418 -999 -999 -999 -999 -999
2007-04-23 13:17 51°11.882 2°37.346 -999 -999 -999 -999 -999
2007-04-23 13:18 51°11.657 2°37.233 -999 -999 -999 -999 -999
2007-04-23 13:19 51°11.431 2°37.124 -999 -999 -999 -999 -999
2007-04-23 13:20 51°11.203 2°37.015 -999 -999 -999 -999 -999
2007-04-23 13:21 51°10.974 2°36.908 -999 -999 -999 -999 -999
2007-04-23 13:22 51°10.748 2°36.805 -999 -999 -999 -999 -999
2007-04-23 13:23 51°10.523 2°36.75 -999 -999 -999 -999 -999
2007-04-23 13:24 51°10.3 2°36.828 -999 -999 -999 -999 -999
2007-04-23 13:25 51°10.143 2°37.053 -999 -999 -999 -999 -999
2007-04-23 13:26 51°10.11 2°37.375 -999 -999 -999 -999 -999
2007-04-23 13:27 51°10.167 2°37.685 -999 -999 -999 -999 -999
2007-04-23 13:28 51°10.231 2°37.994 -999 -999 -999 -999 -999
2007-04-23 13:29 51°10.299 2°38.298 -999 -999 -999 -999 -999
2007-04-23 13:30 51°10.369 2°38.603 -999 -999 -999 -999 -999
2007-04-23 13:31 51°10.435 2°38.912 -999 -999 -999 -999 -999
2007-04-23 13:32 51°10.499 2°39.224 -999 -999 -999 -999 -999
2007-04-23 13:33 51°10.566 2°39.536 -999 -999 -999 -999 -999
2007-04-23 13:34 51°10.637 2°39.849 -999 -999 -999 -999 -999
2007-04-23 13:35 51°10.705 2°40.165 -999 -999 -999 -999 -999
2007-04-23 13:36 51°10.772 2°40.483 -999 -999 -999 -999 -999
2007-04-23 13:37 51°10.838 2°40.804 -999 -999 -999 -999 -999
2007-04-23 13:38 51°10.905 2°41.125 -999 -999 -999 -999 -999
2007-04-23 13:39 51°10.973 2°41.442 -999 -999 -999 -999 -999
2007-04-23 13:40 51°11.026 2°41.703 -999 -999 -999 -999 -999
2007-04-23 13:41 51°11.073 2°41.916 -999 -999 -999 -999 -999
2007-04-23 13:42 51°11.106 2°42.058 -999 -999 -999 -999 -999
2007-04-23 13:43 51°11.11 2°42.106 -999 -999 -999 -999 -999
2007-04-23 13:44 51°11.115 2°42.128 -999 -999 -999 -999 -999
2007-04-23 13:45 51°11.117 2°42.144 -999 -999 -999 -999 -999
2007-04-23 13:46 51°11.123 2°42.155 -999 -999 -999 -999 -999
2007-04-23 13:47 51°11.141 2°42.193 -999 -999 -999 -999 -999
2007-04-23 13:48 51°11.148 2°42.411 -999 -999 -999 -999 -999
2007-04-23 13:49 51°11.161 2°42.742 -999 -999 -999 -999 -999
2007-04-23 13:50 51°11.183 2°43.074 -999 -999 -999 -999 -999
2007-04-23 13:51 51°11.217 2°43.404 -999 -999 -999 -999 -999
2007-04-23 13:52 51°11.339 2°43.648 -999 -999 -999 -999 -999
2007-04-23 13:53 51°11.532 2°43.79 -999 -999 -999 -999 -999
2007-04-23 13:54 51°11.725 2°43.945 -999 -999 -999 -999 -999
2007-04-23 13:55 51°11.915 2°44.103 -999 -999 -999 -999 -999
2007-04-23 13:56 51°12.093 2°44.273 -999 -999 -999 -999 -999
2007-04-23 13:57 51°12.253 2°44.496 -999 -999 -999 -999 -999
2007-04-23 13:58 51°12.373 2°44.787 -999 -999 -999 -999 -999
2007-04-23 13:59 51°12.49 2°45.078 -999 -999 -999 -999 -999
2007-04-23 14:00 51°12.599 2°45.376 -999 -999 -999 -999 -999
2007-04-23 14:01 51°12.714 2°45.667 -999 -999 -999 -999 -999
2007-04-23 14:02 51°12.832 2°45.951 -999 -999 -999 -999 -999
2007-04-23 14:03 51°12.95 2°46.236 -999 -999 -999 -999 -999
2007-04-23 14:04 51°13.066 2°46.519 -999 -999 -999 -999 -999
2007-04-23 14:05 51°13.182 2°46.802 -999 -999 -999 -999 -999
2007-04-23 14:06 51°13.299 2°47.084 -999 -999 -999 -999 -999
2007-04-23 14:07 51°13.418 2°47.364 -999 -999 -999 -999 -999
2007-04-23 14:08 51°13.536 2°47.646 -999 -999 -999 -999 -999
2007-04-23 14:09 51°13.654 2°47.928 -999 -999 -999 -999 -999
2007-04-23 14:10 51°13.771 2°48.21 -999 -999 -999 -999 -999
2007-04-23 14:11 51°13.889 2°48.494 -999 -999 -999 -999 -999
2007-04-23 14:12 51°14.007 2°48.78 -999 -999 -999 -999 -999
2007-04-23 14:13 51°14.127 2°49.062 -999 -999 -999 -999 -999
2007-04-23 14:14 51°14.252 2°49.341 -999 -999 -999 -999 -999
2007-04-23 14:15 51°14.378 2°49.62 -999 -999 -999 -999 -999
2007-04-23 14:16 51°14.512 2°49.891 -999 -999 -999 -999 -999
2007-04-23 14:17 51°14.658 2°50.146 -999 -999 -999 -999 -999
2007-04-23 14:18 51°14.805 2°50.401 -999 -999 -999 -999 -999
2007-04-23 14:19 51°14.945 2°50.665 -999 -999 -999 -999 -999
2007-04-23 14:20 51°15.068 2°50.947 -999 -999 -999 -999 -999
2007-04-23 14:21 51°15.184 2°51.237 -999 -999 -999 -999 -999
2007-04-23 14:22 51°15.298 2°51.528 -999 -999 -999 -999 -999
2007-04-23 14:23 51°15.409 2°51.822 -999 -999 -999 -999 -999
2007-04-23 14:24 51°15.511 2°52.124 -999 -999 -999 -999 -999
2007-04-23 14:25 51°15.611 2°52.424 -999 -999 -999 -999 -999
2007-04-23 14:26 51°15.714 2°52.722 -999 -999 -999 -999 -999
2007-04-23 14:27 51°15.819 2°53.021 -999 -999 -999 -999 -999
2007-04-23 14:28 51°15.922 2°53.321 -999 -999 -999 -999 -999
2007-04-23 14:29 51°16.024 2°53.625 -999 -999 -999 -999 -999
2007-04-23 14:30 51°16.128 2°53.925 -999 -999 -999 -999 -999
2007-04-23 14:31 51°16.213 2°54.176 -999 -999 -999 -999 -999
2007-04-23 14:32 51°16.272 2°54.315 -999 -999 -999 -999 -999
2007-04-23 14:33 51°16.277 2°54.339 -999 -999 -999 -999 -999
2007-04-23 14:34 51°16.276 2°54.354 -999 -999 -999 -999 -999
2007-04-23 14:35 51°16.273 2°54.37 -999 -999 -999 -999 -999
2007-04-23 14:36 51°16.27 2°54.386 -999 -999 -999 -999 -999
2007-04-23 14:37 51°16.266 2°54.403 -999 -999 -999 -999 -999
2007-04-23 14:38 51°16.261 2°54.422 -999 -999 -999 -999 -999
2007-04-23 14:39 51°16.192 2°54.471 -999 -999 -999 -999 -999
2007-04-23 14:40 51°15.995 2°54.51 -999 -999 -999 -999 -999
2007-04-23 14:41 51°15.777 2°54.504 -999 -999 -999 -999 -999
2007-04-23 14:42 51°15.559 2°54.483 -999 -999 -999 -999 -999
2007-04-23 14:43 51°15.342 2°54.468 -999 -999 -999 -999 -999
2007-04-23 14:44 51°15.128 2°54.464 -999 -999 -999 -999 -999
2007-04-23 14:45 51°14.913 2°54.48 -999 -999 -999 -999 -999
2007-04-23 14:46 51°14.709 2°54.584 -999 -999 -999 -999 -999
2007-04-23 14:47 51°14.532 2°54.789 -999 -999 -999 -999 -999
2007-04-23 14:48 51°14.377 2°55.04 -999 -999 -999 -999 -999
2007-04-23 14:49 51°14.248 2°55.286 -999 -999 -999 -999 -999
2007-04-23 14:50 51°14.148 2°55.383 -999 -999 -999 -999 -999
2007-04-23 14:51 51°14.072 2°55.44 -999 -999 -999 -999 -999
2007-04-23 14:52 51°13.983 2°55.508 -999 -999 -999 -999 -999
2007-04-23 14:53 51°13.886 2°55.582 -999 -999 -999 -999 -999
2007-04-23 14:54 51°13.807 2°55.647 -999 -999 -999 -999 -999
2007-04-23 14:55 51°13.761 2°55.713 -999 -999 -999 -999 -999
2007-04-23 14:56 51°13.721 2°55.773 -999 -999 -999 -999 -999
2007-04-23 14:57 51°13.689 2°55.831 -999 -999 -999 -999 -999
2007-04-23 14:58 51°13.663 2°55.886 -999 -999 -999 -999 -999
2007-04-23 14:59 51°13.629 2°55.955 -999 -999 -999 -999 -999
2007-04-23 15:00 51°13.608 2°56.042 -999 -999 -999 -999 -999
2007-04-23 15:01 51°13.602 2°56.098 -999 -999 -999 -999 -999